| time (UTC) | temp C | wind direction | speed KPH | gust KPH | rain 1hr cm | rain 24hr cm | rain mn cm | humidity % | barometer mb |
| 20260510231036 | 26 | 131 | 1.6 | 4.8 | 0.00 | 0.03 | 0.03 | 81 | 1012.6 |
| 20260510230035 | 26 | 116 | 3.2 | 4.8 | 0.00 | 0.03 | 0.03 | 81 | 1012.6 |
| 20260510225035 | 26 | 121 | 1.6 | 4.8 | 0.00 | 0.03 | 0.03 | 80 | 1012.6 |
| 20260510224034 | 26 | 113 | 1.6 | 8.0 | 0.00 | 0.03 | 0.03 | 79 | 1013.0 |
| 20260510223002 | 27 | 31 | 1.6 | 8.0 | 0.00 | 0.03 | 0.03 | 81 | 1012.6 |
| 20260510222001 | 27 | 56 | 1.6 | 9.7 | 0.00 | 0.03 | 0.03 | 81 | 1012.7 |
| 20260510221000 | 27 | 48 | 3.2 | 9.7 | 0.00 | 0.03 | 0.03 | 79 | 1012.7 |
| 20260510215959 | 27 | 38 | 3.2 | 11.3 | 0.00 | 0.03 | 0.03 | 78 | 1012.7 |
| 20260510214958 | 27 | 60 | 3.2 | 8.0 | 0.00 | 0.03 | 0.03 | 77 | 1012.7 |
| 20260510213957 | 27 | 17 | 3.2 | 9.7 | 0.00 | 0.03 | 0.03 | 77 | 1012.7 |
| 20260510212956 | 27 | 86 | 3.2 | 9.7 | 0.00 | 0.03 | 0.03 | 76 | 1013.0 |
| 20260510211955 | 27 | 29 | 4.8 | 9.7 | 0.00 | 0.03 | 0.03 | 76 | 1012.7 |
| 20260510210954 | 27 | 21 | 3.2 | 9.7 | 0.00 | 0.10 | 0.03 | 77 | 1013.0 |
| 20260510205922 | 28 | 13 | 4.8 | 9.7 | 0.00 | 0.15 | 0.03 | 76 | 1012.7 |
| 20260510204921 | 28 | 25 | 3.2 | 9.7 | 0.00 | 0.51 | 0.03 | 76 | 1012.7 |
| 20260510203920 | 28 | 17 | 4.8 | 14.5 | 0.00 | 0.56 | 0.03 | 76 | 1012.7 |
| 20260510202919 | 28 | 47 | 3.2 | 16.1 | 0.00 | 0.56 | 0.03 | 76 | 1013.0 |
| 20260510201918 | 28 | 34 | 4.8 | 17.7 | 0.00 | 0.56 | 0.03 | 75 | 1013.0 |
| 20260510200917 | 29 | 13 | 3.2 | 17.7 | 0.00 | 0.56 | 0.03 | 73 | 1013.0 |
| 20260510195916 | 29 | 339 | 3.2 | 11.3 | 0.00 | 0.56 | 0.03 | 71 | 1013.0 |
| 20260510194915 | 30 | 5 | 1.6 | 12.9 | 0.00 | 0.56 | 0.03 | 70 | 1012.7 |
| 20260510193915 | 31 | 340 | 4.8 | 9.7 | 0.00 | 0.56 | 0.03 | 67 | 1012.7 |
| 20260510192914 | 32 | 267 | 1.6 | 4.8 | 0.00 | 0.56 | 0.03 | 61 | 1012.3 |
| 20260510191913 | 32 | 296 | 1.6 | 4.8 | 0.00 | 0.56 | 0.03 | 60 | 1012.3 |
| 20260510190912 | 32 | 254 | 1.6 | 4.8 | 0.00 | 0.56 | 0.03 | 59 | 1012.3 |
| 20260510185911 | 32 | 218 | 1.6 | 9.7 | 0.00 | 0.56 | 0.03 | 59 | 1012.3 |
| 20260510184839 | 33 | 281 | 1.6 | 11.3 | 0.00 | 0.56 | 0.03 | 57 | 1012.3 |
| 20260510183838 | 33 | 162 | 3.2 | 11.3 | 0.00 | 0.56 | 0.03 | 53 | 1012.7 |
| 20260510182837 | 33 | 193 | 3.2 | 9.7 | 0.00 | 0.56 | 0.03 | 54 | 1012.7 |
| 20260510181836 | 33 | 146 | 3.2 | 8.0 | 0.00 | 0.56 | 0.03 | 56 | 1012.7 |
| 20260510180835 | 33 | 290 | 1.6 | 8.0 | 0.00 | 0.56 | 0.03 | 56 | 1012.7 |
| 20260510175834 | 33 | 321 | 3.2 | 8.0 | 0.00 | 0.56 | 0.03 | 56 | 1012.7 |
| 20260510174731 | 32 | 264 | 3.2 | 6.4 | 0.00 | 0.56 | 0.03 | 59 | 1013.0 |
| 20260510173556 | 32 | 301 | 1.6 | 6.4 | 0.00 | 0.56 | 0.03 | 59 | 1013.0 |
| 20260510172555 | 32 | 325 | 3.2 | 6.4 | 0.00 | 0.56 | 0.03 | 58 | 1013.3 |
| 20260510171554 | 32 | 271 | 1.6 | 8.0 | 0.00 | 0.56 | 0.03 | 61 | 1013.3 |
| 20260510170553 | 32 | 133 | 1.6 | 14.5 | 0.00 | 0.56 | 0.03 | 63 | 1013.3 |
| 20260510165553 | 32 | 161 | 1.6 | 14.5 | 0.00 | 0.56 | 0.03 | 59 | 1013.7 |
| 20260510164551 | 32 | 155 | 3.2 | 17.7 | 0.00 | 0.56 | 0.03 | 60 | 1013.7 |
| 20260510163550 | 32 | 201 | 3.2 | 17.7 | 0.00 | 0.56 | 0.03 | 62 | 1014.0 |
| 20260510162549 | 31 | 179 | 4.8 | 9.7 | 0.00 | 0.56 | 0.03 | 65 | 1014.0 |
| 20260510161548 | 32 | 160 | 3.2 | 9.7 | 0.00 | 0.56 | 0.03 | 65 | 1014.0 |
| 20260510160445 | 31 | 179 | 3.2 | 8.0 | 0.00 | 0.56 | 0.03 | 68 | 1014.0 |
| 20260510155444 | 31 | 172 | 3.2 | 9.7 | 0.00 | 0.56 | 0.03 | 66 | 1014.0 |
| 20260510154443 | 31 | 206 | 3.2 | 11.3 | 0.00 | 0.56 | 0.03 | 71 | 1014.0 |
| 20260510153442 | 30 | 163 | 4.8 | 11.3 | 0.00 | 0.56 | 0.03 | 70 | 1014.4 |
| 20260510152441 | 30 | 231 | 1.6 | 8.0 | 0.00 | 0.56 | 0.03 | 70 | 1014.4 |
| 20260510151440 | 30 | 275 | 1.6 | 4.8 | 0.00 | 0.56 | 0.03 | 71 | 1014.0 |
| 20260510150439 | 30 | 275 | 1.6 | 6.4 | 0.00 | 0.56 | 0.03 | 73 | 1014.0 |
| 20260510145407 | 29 | 227 | 3.2 | 8.0 | 0.00 | 0.56 | 0.03 | 73 | 1014.0 |
| 20260510144335 | 29 | 242 | 0.0 | 9.7 | 0.00 | 0.56 | 0.03 | 77 | 1014.0 |
| 20260510143334 | 28 | 193 | 1.6 | 9.7 | 0.00 | 0.56 | 0.03 | 77 | 1014.0 |
| 20260510142333 | 28 | 201 | 3.2 | 6.4 | 0.00 | 0.56 | 0.03 | 81 | 1014.0 |
| 20260510141332 | 27 | 161 | 3.2 | 4.8 | 0.00 | 0.56 | 0.03 | 85 | 1014.0 |
| 20260510140331 | 27 | 149 | 0.0 | 4.8 | 0.00 | 0.56 | 0.03 | 87 | 1014.0 |
| 20260510135330 | 27 | 163 | 3.2 | 4.8 | 0.00 | 0.56 | 0.03 | 87 | 1014.0 |
| 20260510134329 | 26 | 153 | 3.2 | 4.8 | 0.00 | 0.56 | 0.03 | 90 | 1013.7 |
| 20260510133328 | 25 | 164 | 1.6 | 3.2 | 0.00 | 0.56 | 0.03 | 93 | 1013.7 |
| 20260510132256 | 25 | 147 | 0.0 | 1.6 | 0.00 | 0.56 | 0.03 | 95 | 1013.7 |
| 20260510131255 | 24 | 191 | 1.6 | 1.6 | 0.00 | 0.56 | 0.03 | 96 | 1013.7 |
| 20260510130254 | 24 | 150 | 1.6 | 1.6 | 0.00 | 0.56 | 0.03 | 99 | 1013.7 |
| 20260510125254 | 24 | 124 | 0.0 | 0.0 | 0.00 | 0.56 | 0.03 | 100 | 1013.3 |
| 20260510124221 | 23 | 124 | 0.0 | 0.0 | 0.00 | 0.56 | 0.03 | 100 | 1013.3 |
| 20260510123149 | 23 | 124 | 0.0 | 0.0 | 0.00 | 0.56 | 0.03 | 100 | 1013.3 |
| 20260510122149 | 23 | 124 | 0.0 | 0.0 | 0.00 | 0.56 | 0.03 | 100 | 1013.3 |
| 20260510121148 | 23 | 124 | 0.0 | 0.0 | 0.00 | 0.56 | 0.03 | 100 | 1012.9 |
| 20260510120045 | 23 | 124 | 0.0 | 0.0 | 0.00 | 0.56 | 0.03 | 100 | 1012.9 |
| 20260510115044 | 22 | 124 | 0.0 | 0.0 | 0.00 | 0.56 | 0.03 | 100 | 1012.9 |
| 20260510114011 | 22 | 124 | 0.0 | 0.0 | 0.03 | 0.56 | 0.03 | 100 | 1012.6 |
| 20260510113011 | 22 | 124 | 0.0 | 0.0 | 0.03 | 0.56 | 0.03 | 100 | 1012.3 |
| 20260510112010 | 22 | 124 | 0.0 | 0.0 | 0.03 | 0.56 | 0.03 | 99 | 1012.3 |
| 20260510111009 | 22 | 124 | 0.0 | 0.0 | 0.03 | 0.56 | 0.03 | 99 | 1012.3 |
| 20260510110008 | 22 | 124 | 0.0 | 0.0 | 0.03 | 0.56 | 0.03 | 99 | 1012.3 |
| 20260510104936 | 22 | 124 | 0.0 | 0.0 | 0.03 | 0.56 | 0.03 | 99 | 1012.0 |
| 20260510103935 | 22 | 124 | 0.0 | 0.0 | 0.00 | 0.53 | 0.00 | 99 | 1011.6 |
| 20260510102934 | 22 | 124 | 0.0 | 0.0 | 0.00 | 0.53 | 0.00 | 99 | 1011.6 |
| 20260510101933 | 22 | 124 | 0.0 | 0.0 | 0.00 | 0.53 | 0.00 | 99 | 1011.6 |
| 20260510100932 | 22 | 124 | 0.0 | 0.0 | 0.00 | 0.53 | 0.00 | 99 | 1011.3 |
| 20260510095931 | 22 | 124 | 0.0 | 0.0 | 0.00 | 0.53 | 0.00 | 99 | 1011.3 |
| 20260510094931 | 22 | 124 | 0.0 | 0.0 | 0.00 | 0.53 | 0.00 | 99 | 1011.3 |
| 20260510093930 | 22 | 124 | 0.0 | 0.0 | 0.00 | 0.53 | 0.00 | 100 | 1010.9 |
| 20260510092929 | 22 | 124 | 0.0 | 0.0 | 0.00 | 0.53 | 0.00 | 100 | 1010.9 |
| 20260510091928 | 22 | 124 | 0.0 | 0.0 | 0.00 | 0.53 | 0.00 | 100 | 1010.9 |
| 20260510090927 | 22 | 124 | 0.0 | 0.0 | 0.00 | 0.53 | 0.00 | 99 | 1010.9 |
| 20260510085926 | 22 | 124 | 0.0 | 1.6 | 0.00 | 0.53 | 0.00 | 99 | 1010.6 |
| 20260510084925 | 21 | 99 | 0.0 | 1.6 | 0.00 | 0.53 | 0.00 | 99 | 1010.6 |
| 20260510083924 | 21 | 99 | 0.0 | 0.0 | 0.00 | 0.53 | 0.00 | 99 | 1011.0 |
| 20260510082923 | 21 | 99 | 0.0 | 0.0 | 0.00 | 0.53 | 0.00 | 99 | 1011.0 |
| 20260510081851 | 21 | 99 | 0.0 | 0.0 | 0.00 | 0.53 | 0.00 | 99 | 1011.0 |
| 20260510080850 | 21 | 98 | 0.0 | 0.0 | 0.00 | 0.53 | 0.00 | 99 | 1011.0 |
| 20260510075849 | 21 | 99 | 0.0 | 0.0 | 0.00 | 0.53 | 0.00 | 99 | 1011.0 |
| 20260510074848 | 21 | 99 | 0.0 | 0.0 | 0.00 | 0.53 | 0.00 | 99 | 1011.0 |
| 20260510073847 | 21 | 98 | 0.0 | 0.0 | 0.00 | 0.53 | 0.00 | 99 | 1011.0 |
| 20260510072846 | 21 | 99 | 0.0 | 0.0 | 0.00 | 0.53 | 0.00 | 99 | 1011.3 |
| 20260510071845 | 21 | 98 | 0.0 | 0.0 | 0.00 | 0.53 | 0.00 | 99 | 1011.3 |
| 20260510070844 | 21 | 98 | 0.0 | 0.0 | 0.00 | 0.53 | 0.00 | 99 | 1011.3 |
| 20260510065843 | 21 | 99 | 0.0 | 0.0 | 0.00 | 0.53 | 0.00 | 99 | 1011.3 |
| 20260510064842 | 21 | 98 | 0.0 | 0.0 | 0.00 | 0.53 | 0.00 | 99 | 1011.3 |
| 20260510063841 | 21 | 98 | 0.0 | 0.0 | 0.00 | 0.53 | 0.00 | 99 | 1011.3 |
| 20260510062840 | 21 | 98 | 0.0 | 0.0 | 0.00 | 0.53 | 0.00 | 99 | 1011.7 |
| 20260510061839 | 21 | 98 | 0.0 | 0.0 | 0.00 | 0.53 | 0.00 | 99 | 1011.7 |
| 20260510060838 | 21 | 98 | 0.0 | 0.0 | 0.00 | 0.53 | 0.00 | 99 | 1011.7 |
| 20260510055836 | 21 | 98 | 0.0 | 0.0 | 0.00 | 0.53 | 0.00 | 99 | 1011.7 |
| 20260510054836 | 21 | 98 | 0.0 | 0.0 | 0.00 | 0.53 | 0.00 | 99 | 1012.0 |
| 20260510053835 | 21 | 99 | 0.0 | 0.0 | 0.00 | 0.53 | 0.00 | 99 | 1012.0 |
| 20260510052833 | 21 | 98 | 0.0 | 0.0 | 0.00 | 0.53 | 0.00 | 99 | 1012.3 |
| 20260510051832 | 21 | 99 | 0.0 | 1.6 | 0.00 | 0.53 | 0.00 | 99 | 1012.3 |
| 20260510050832 | 21 | 99 | 0.0 | 1.6 | 0.00 | 0.53 | 0.00 | 99 | 1012.3 |
| 20260510045831 | 21 | 99 | 0.0 | 0.0 | 0.00 | 0.53 | 0.00 | 98 | 1012.7 |
| 20260510044830 | 21 | 99 | 0.0 | 0.0 | 0.00 | 0.53 | 0.00 | 98 | 1012.7 |
| 20260510043829 | 21 | 99 | 0.0 | 0.0 | 0.00 | 0.53 | 0.00 | 98 | 1012.7 |
| 20260510042829 | 22 | 99 | 0.0 | 0.0 | 0.00 | 0.53 | 0.00 | 98 | 1012.7 |
| 20260510041828 | 22 | 99 | 0.0 | 0.0 | 0.00 | 0.53 | 0.00 | 98 | 1012.7 |
| 20260510040827 | 22 | 99 | 0.0 | 0.0 | 0.00 | 0.53 | 0.00 | 98 | 1012.7 |
| 20260510035826 | 22 | 99 | 0.0 | 0.0 | 0.00 | 0.53 | 0.53 | 98 | 1012.7 |
| 20260510034825 | 22 | 98 | 0.0 | 0.0 | 0.00 | 0.53 | 0.53 | 98 | 1012.7 |
| 20260510033824 | 22 | 98 | 0.0 | 0.0 | 0.00 | 0.53 | 0.53 | 98 | 1012.3 |
| 20260510032823 | 22 | 98 | 0.0 | 0.0 | 0.00 | 0.53 | 0.53 | 98 | 1012.3 |
| 20260510031822 | 22 | 98 | 0.0 | 0.0 | 0.00 | 0.53 | 0.53 | 98 | 1012.3 |
| 20260510030750 | 22 | 98 | 0.0 | 0.0 | 0.00 | 0.53 | 0.53 | 99 | 1012.3 |
| 20260510025717 | 22 | 98 | 0.0 | 0.0 | 0.00 | 0.53 | 0.53 | 99 | 1012.3 |
| 20260510024716 | 22 | 77 | 0.0 | 0.0 | 0.00 | 0.53 | 0.53 | 99 | 1012.3 |
| 20260510023715 | 22 | 77 | 0.0 | 0.0 | 0.00 | 0.53 | 0.53 | 99 | 1012.3 |
| 20260510022643 | 22 | 77 | 0.0 | 0.0 | 0.00 | 0.53 | 0.53 | 99 | 1012.3 |
| 20260510021642 | 22 | 78 | 0.0 | 0.0 | 0.00 | 0.53 | 0.53 | 99 | 1012.3 |
| 20260510020641 | 22 | 77 | 0.0 | 1.6 | 0.00 | 0.53 | 0.53 | 99 | 1012.3 |
| 20260510015641 | 22 | 58 | 0.0 | 0.0 | 0.00 | 0.53 | 0.53 | 99 | 1012.3 |
| 20260510014609 | 22 | 336 | 0.0 | 0.0 | 0.00 | 0.53 | 0.53 | 99 | 1012.3 |
| 20260510013537 | 22 | 336 | 0.0 | 0.0 | 0.00 | 0.53 | 0.53 | 99 | 1012.0 |
| 20260510012536 | 22 | 336 | 0.0 | 0.0 | 0.00 | 0.56 | 0.53 | 99 | 1012.0 |
| 20260510011504 | 22 | 336 | 0.0 | 0.0 | 0.00 | 0.76 | 0.53 | 99 | 1012.0 |
| 20260510010506 | 22 | 335 | 0.0 | 1.6 | 0.00 | 1.07 | 0.53 | 98 | 1011.6 |
| 20260510004717 | 22 | 336 | 1.6 | 1.6 | 0.00 | 1.14 | 0.53 | 98 | 1011.6 |
| 20260510003716 | 23 | 333 | 1.6 | 1.6 | 0.00 | 1.14 | 0.53 | 98 | 1011.3 |
| 20260510002644 | 23 | 285 | 1.6 | 1.6 | 0.00 | 1.47 | 0.53 | 98 | 1010.9 |
| 20260510001644 | 23 | 283 | 1.6 | 1.6 | 0.00 | 2.57 | 0.53 | 98 | 1011.3 |
| 20260510000643 | 23 | 284 | 0.0 | 1.6 | 0.00 | 2.57 | 0.53 | 98 | 1010.9 |
| 20260509235642 | 23 | 29 | 1.6 | 1.6 | 0.00 | 2.57 | 0.53 | 97 | 1010.6 |
| 20260509234641 | 23 | 32 | 1.6 | 1.6 | 0.00 | 2.57 | 0.53 | 97 | 1010.9 |
| 20260509233640 | 23 | 354 | 1.6 | 4.8 | 0.00 | 2.57 | 0.53 | 97 | 1010.6 |
| 20260509232639 | 23 | 70 | 3.2 | 4.8 | 0.00 | 2.57 | 0.53 | 97 | 1010.6 |
| 20260509231639 | 23 | 46 | 1.6 | 4.8 | 0.00 | 2.57 | 0.53 | 97 | 1010.3 |